Stations météo

réclame
Mon MeteoGroup
Romorantin, France (7247): Température de l'air & dewpoint: 28.06.2020 13:00:00 - 04.07.2020 13:00:00 (CEST)Romorantin, France (7247): Température de l'air 5cm: 28.06.2020 13:00:00 - 04.07.2020 13:00:00 (CEST)Romorantin, France (7247): Température de l'air -20cm & Température de l'air -100cm: 28.06.2020 13:00:00 - 04.07.2020 13:00:00 (CEST)Romorantin, France (7247): Vitesse du vent & gusts: 28.06.2020 13:00:00 - 04.07.2020 13:00:00 (CEST)Romorantin, France (7247): Direction du vent: 28.06.2020 13:00:00 - 04.07.2020 13:00:00 (CEST)Romorantin, France (7247): reduced air pressure: 28.06.2020 13:00:00 - 04.07.2020 13:00:00 (CEST)Romorantin, France (7247): visibility: 28.06.2020 13:00:00 - 04.07.2020 13:00:00 (CEST)Romorantin, France (7247): Quantités de précipitations: 28.06.2020 13:00:00 - 04.07.2020 13:00:00 (CEST)
Date & Time tt [°C] td [°C] tt 5cm [°C] tt -20cm [°C] tt -100cm [°C] ff [km/h] ff [knt] fx [km/h] fx [knt] dd ppp [hPa] vv [km] rr [mm]
04.07.2020 13:00:00 22,1 12,4 29,2 18,1 17,8 19 10 35 19 WSW 1021,9 20 0,0
04.07.2020 12:00:00 20,8 12,7 28,2 18,0 17,8 19 10 32 17 SSW 1022,2 20 0,0
04.07.2020 11:00:00 20,0 12,2 23,6 18,0 17,8 18 10 32 17 WSW 1022,2 20 0,0
04.07.2020 10:00:00 18,8 12,3 19,5 18,0 17,8 16 9 31 17 WSW 1022,5 20 0,0
04.07.2020 09:00:00 16,6 11,9 13,8 18,1 17,8 13 7 25 14 WSW 1022,6 20 0,0
04.07.2020 08:00:00 13,5 12,1 10,1 18,2 17,8 8 4 13 7 SSW 1022,7 20 0,0
04.07.2020 07:00:00 10,9 10,9 6,5 18,3 17,7 6 3 9 5 SSW 1022,4 20 0,0
04.07.2020 06:00:00 8,6 8,6 6,2 18,5 17,8 5 3 7 4 SSW 1022,5 20 0,0
04.07.2020 05:00:00 7,8 7,8 6,3 18,6 17,8 3 1 4 2 SSW 1022,7 0,5 0,0
04.07.2020 04:00:00 8,7 8,7 7,1 18,7 17,8 0 0 4 2 N 1022,8 0,6 0,0
04.07.2020 03:00:00 9,1 9,0 7,6 18,8 17,7 0 0 0 0 N 1022,8 0,6 0,0
04.07.2020 02:00:00 9,1 8,6 8,1 19,0 17,8 0 0 5 3 N 1022,9 14 0,0
04.07.2020 01:00:00 10,0 9,5 9,2 19,1 17,8 0 0 3 2 N 1022,8 20 0,0
04.07.2020 00:00:00 11,0 10,1 9,5 19,1 17,8 0 0 2 1 N 1022,5 20 0,0
03.07.2020 23:00:00 12,3 10,2 11,1 19,2 17,8 2 1 5 3 S 1022,2 20 0,0
03.07.2020 22:00:00 16,0 10,1 13,9 19,2 17,8 0 0 14 8 N 1021,4 20 0,0
03.07.2020 21:00:00 21,2 9,1 19,3 19,1 17,7 8 4 23 12 W 1021,0 20 0,0
03.07.2020 20:00:00 22,7 9,1 22,7 19,1 17,8 13 7 24 13 W 1020,8 20 0,0
03.07.2020 19:00:00 23,1 8,8 24,9 19,0 17,8 15 8 28 15 W 1020,8 20 0,0
03.07.2020 18:00:00 23,4 10,1 27,2 18,9 17,8 14 7 28 15 WNW 1021,2 20 0,0
03.07.2020 17:00:00 22,6 9,7 27,1 18,8 17,8 13 7 23 12 WNW 1021,3 20 0,0
03.07.2020 16:00:00 21,3 10,5 26,8 18,7 17,8 9 5 24 13 WSW 1021,6 20 0,0
03.07.2020 15:00:00 21,7 10,5 27,2 18,6 17,8 10 6 23 12 WNW 1021,6 20 0,0
03.07.2020 14:00:00 20,7 11,1 28,4 18,5 17,8 10 5 23 12 W 1022,2 20 0,0
03.07.2020 13:00:00 20,2 11,9 25,0 18,4 17,8 10 5 20 11 WSW 1022,2 20 0,0
03.07.2020 12:00:00 19,8 10,8 23,7 18,4 17,7 9 5 16 8 WNW 1022,0 20 0,0
03.07.2020 11:00:00 18,5 10,6 24,6 18,4 17,8 12 7 21 11 W 1022,2 20 0,0
03.07.2020 10:00:00 18,5 10,8 23,7 18,4 17,8 9 5 16 9 WNW 1022,1 20 0,0
03.07.2020 09:00:00 17,2 12,1 15,8 18,4 17,8 7 4 13 7 W 1022,2 20 0,0
03.07.2020 08:00:00 14,9 12,2 - 18,4 17,7 4 2 - - W 1021,9 20 -
03.07.2020 07:00:00 - - - - - - - - - - - - -
03.07.2020 06:00:00 - - - - - - - - - - - - -
03.07.2020 05:00:00 - - - - - - - - - - - - -
03.07.2020 04:00:00 - - - - - - - - - - - - -
03.07.2020 03:00:00 14,7 12,0 13,8 18,8 17,7 4 2 6 4 WSW 1020,6 20 0,0
03.07.2020 02:00:00 15,3 11,9 13,9 18,8 17,8 2 1 7 4 W 1020,2 20 0,0
03.07.2020 01:00:00 13,9 12,1 14,0 18,9 17,8 0 0 6 3 N 1020,1 20 0,0
03.07.2020 00:00:00 15,0 11,8 14,4 18,9 17,7 2 1 7 4 WSW 1019,7 20 0,0
02.07.2020 23:00:00 17,5 11,1 15,6 18,9 17,7 4 2 16 8 W 1019,0 20 0,0
02.07.2020 22:00:00 18,9 10,7 17,3 19,0 17,7 6 4 16 9 WNW 1018,4 20 0,0
02.07.2020 21:00:00 19,2 11,2 17,9 18,9 17,8 5 3 21 11 W 1017,8 20 0,0
02.07.2020 20:00:00 21,8 10,0 22,8 18,9 17,8 14 7 23 13 W 1017,5 20 0,0
02.07.2020 19:00:00 22,0 11,1 23,8 18,8 17,7 10 5 23 13 W 1017,0 20 0,0
02.07.2020 18:00:00 20,7 11,1 24,3 18,8 17,8 13 7 23 13 WSW 1016,9 20 0,0
02.07.2020 17:00:00 20,3 11,8 22,7 18,8 17,7 14 8 28 15 WSW 1017,0 20 0,0
02.07.2020 16:00:00 20,8 12,0 23,3 18,7 17,7 14 8 26 14 W 1016,9 20 0,0
02.07.2020 15:00:00 19,9 11,4 21,1 18,7 17,7 10 6 23 12 W 1016,9 20 0,0
02.07.2020 14:00:00 19,9 12,2 26,1 18,7 17,8 11 6 - - W 1016,7 20 0,0
02.07.2020 13:00:00 19,9 12,2 26,7 18,6 17,7 14 8 27 15 WSW 1016,5 20 -
02.07.2020 12:00:00 18,3 10,4 20,0 18,7 17,7 14 8 27 15 WNW 1016,4 20 0,0
02.07.2020 11:00:00 19,1 13,1 18,6 18,7 17,7 15 8 27 15 WSW 1015,9 20 0,0
02.07.2020 10:00:00 18,6 13,0 19,3 18,7 17,8 11 6 31 17 WSW 1015,5 20 0,0
02.07.2020 09:00:00 17,5 13,0 18,4 18,8 17,7 9 5 23 12 WSW 1015,2 20 0,0
02.07.2020 08:00:00 16,9 14,0 16,3 18,8 17,7 13 7 25 13 SW 1014,9 20 0,0
02.07.2020 07:00:00 16,4 13,9 15,7 18,9 17,8 12 7 20 11 SW 1014,7 20 0,0
02.07.2020 06:00:00 16,3 13,6 15,5 18,9 17,7 8 5 17 9 SW 1014,4 20 0,0
02.07.2020 05:00:00 16,3 13,0 15,5 19,0 17,7 9 5 20 11 SW 1014,1 20 0,0
02.07.2020 04:00:00 16,7 12,8 15,5 19,1 17,7 10 5 24 13 SW 1014,2 20 0,0
02.07.2020 03:00:00 16,6 13,3 15,0 19,2 17,7 10 5 20 11 SW 1014,2 20 0,0
02.07.2020 02:00:00 17,6 13,5 16,5 19,2 17,7 10 5 21 11 SW 1014,1 20 0,0
02.07.2020 01:00:00 18,4 13,7 17,3 19,3 17,8 13 7 31 17 WSW 1013,9 20 0,0
02.07.2020 00:00:00 19,3 13,9 18,2 19,3 17,8 14 8 33 18 WSW 1013,6 20 0,0
01.07.2020 23:00:00 20,5 14,6 18,8 19,3 17,8 16 9 28 15 WSW 1013,1 20 0,0
01.07.2020 22:00:00 20,9 15,7 19,5 19,3 17,7 15 8 29 16 SW 1012,4 20 0,0
01.07.2020 21:00:00 22,1 15,9 21,4 19,2 17,7 16 8 28 15 WSW 1011,8 20 0,0
01.07.2020 20:00:00 22,4 16,0 23,2 19,2 17,8 18 10 37 20 WSW 1011,7 20 0,0
01.07.2020 19:00:00 24,0 16,0 24,9 19,1 17,7 18 10 35 19 W 1011,5 20 0,0
01.07.2020 18:00:00 24,2 15,7 27,4 19,0 17,7 22 12 36 20 WSW 1011,5 20 0,0
01.07.2020 17:00:00 24,2 15,9 27,5 18,9 17,7 20 11 32 18 WSW 1011,7 20 0,0
01.07.2020 16:00:00 24,6 15,5 30,8 18,8 17,8 18 10 33 18 WSW 1011,6 20 0,0
01.07.2020 15:00:00 24,2 15,7 27,9 18,7 17,8 14 8 30 16 WSW 1011,7 20 0,0
01.07.2020 14:00:00 23,2 15,3 27,1 18,6 17,8 16 8 37 20 WSW 1011,7 20 0,0
01.07.2020 13:00:00 23,2 15,0 29,4 18,5 17,7 14 7 29 16 WSW 1011,6 20 0,0
01.07.2020 12:00:00 23,0 15,8 28,0 18,4 17,8 16 9 27 15 WSW 1011,4 20 0,0
01.07.2020 11:00:00 21,1 16,7 25,7 18,4 17,7 14 7 23 12 SW 1011,7 20 0,0
01.07.2020 10:00:00 20,2 16,2 22,5 18,3 17,8 11 6 18 10 SSW 1011,8 20 0,0
01.07.2020 09:00:00 19,1 16,3 17,3 18,4 17,8 10 5 17 9 SW 1011,6 20 0,0
01.07.2020 08:00:00 16,4 15,4 15,5 18,4 17,7 3 2 12 6 SW 1011,4 20 0,0
01.07.2020 07:00:00 15,0 15,0 11,7 18,5 17,8 6 3 8 5 SSW 1011,4 20 0,0
01.07.2020 06:00:00 12,3 11,8 11,0 18,6 17,8 0 0 3 2 N 1011,7 0,3 0,0
01.07.2020 05:00:00 13,5 13,2 11,4 18,7 17,7 0 0 4 2 N 1011,6 2,6 0,0
01.07.2020 04:00:00 13,9 13,6 12,1 18,7 17,7 0 0 9 5 N 1011,8 20 0,0
01.07.2020 03:00:00 14,0 13,5 12,7 18,8 17,8 6 3 10 5 S 1012,1 20 0,0
01.07.2020 02:00:00 14,6 13,6 13,9 18,8 17,7 3 1 7 4 SE 1012,3 20 0,0
01.07.2020 01:00:00 17,4 14,9 16,6 18,8 17,7 5 3 10 5 S 1012,8 20 0,0
01.07.2020 00:00:00 18,8 14,9 17,2 18,8 17,8 5 3 11 6 SW 1012,8 20 0,0
30.06.2020 23:00:00 19,2 15,1 18,4 18,8 17,8 6 3 13 7 SSW 1012,9 20 0,0
30.06.2020 22:00:00 19,7 15,1 19,1 18,8 17,8 6 3 13 7 SW 1012,8 20 0,0
30.06.2020 21:00:00 20,1 15,1 20,2 18,7 17,7 6 4 16 9 SW 1013,0 20 0,0
30.06.2020 20:00:00 20,4 15,2 21,2 18,7 17,7 10 5 19 11 SW 1013,1 20 0,0
30.06.2020 19:00:00 20,4 14,5 21,9 18,7 17,7 12 7 21 12 WSW 1013,4 20 0,0
30.06.2020 18:00:00 20,8 14,4 23,2 18,6 17,7 12 7 25 13 WSW 1013,8 20 0,0
30.06.2020 17:00:00 20,8 14,4 22,9 18,6 17,8 13 7 31 17 SW 1014,2 20 0,0
30.06.2020 16:00:00 20,7 13,9 22,5 18,5 17,8 16 9 31 17 WSW 1014,5 20 0,0
30.06.2020 15:00:00 20,1 13,8 22,9 18,5 17,8 14 8 32 18 SW 1014,8 20 0,0
30.06.2020 14:00:00 20,1 13,3 23,5 18,4 17,8 18 10 29 15 SW 1014,9 20 0,0
30.06.2020 13:00:00 19,7 12,9 23,0 18,4 17,8 16 8 24 13 SW 1015,2 20 0,0
30.06.2020 12:00:00 19,2 12,7 21,2 18,4 17,7 13 7 28 15 WSW 1015,4 20 0,0
30.06.2020 11:00:00 18,8 12,3 24,4 18,4 17,7 17 9 29 15 WSW 1015,5 20 0,0
30.06.2020 10:00:00 17,8 11,6 21,7 18,3 17,7 14 7 25 13 WSW 1015,9 20 0,0
30.06.2020 09:00:00 17,1 11,8 16,7 18,4 17,8 11 6 19 10 SW 1016,0 20 0,0
30.06.2020 08:00:00 15,6 11,6 12,7 18,4 17,7 9 5 16 9 SW 1016,1 20 0,0
30.06.2020 07:00:00 13,9 11,2 12,7 18,5 17,7 6 4 12 6 SW 1016,1 20 0,0
30.06.2020 06:00:00 13,8 11,0 13,2 18,6 17,8 6 3 11 6 SSW 1016,1 20 0,0
30.06.2020 05:00:00 14,2 10,8 13,4 18,7 17,7 7 4 16 8 SW 1016,1 20 0,0
30.06.2020 04:00:00 14,4 10,8 13,5 18,8 17,7 7 4 13 7 SW 1016,3 20 0,0
30.06.2020 03:00:00 14,4 10,8 12,8 18,8 17,7 7 4 11 6 SW 1016,4 20 0,0
30.06.2020 02:00:00 14,0 11,0 10,4 18,9 17,7 4 2 8 5 SW 1016,7 20 0,0
30.06.2020 01:00:00 13,7 10,7 10,5 19,0 17,7 5 3 10 5 WSW 1017,0 20 0,0
30.06.2020 00:00:00 14,6 11,0 11,0 19,0 17,7 6 3 10 6 SW 1016,8 20 0,0
29.06.2020 23:00:00 14,3 10,9 11,9 19,1 17,8 5 3 9 5 SW 1016,7 20 0,0
29.06.2020 22:00:00 16,8 11,1 14,0 19,1 17,7 6 3 12 6 WSW 1016,3 20 0,0
29.06.2020 21:00:00 19,2 10,5 17,9 19,1 17,8 8 4 21 12 WSW 1016,3 20 0,0
29.06.2020 20:00:00 20,9 9,8 21,6 19,1 17,8 10 5 27 15 WSW 1016,4 20 0,0
29.06.2020 19:00:00 21,2 10,1 24,0 19,0 17,8 14 7 33 18 SW 1016,7 20 0,0
29.06.2020 18:00:00 20,3 9,2 25,4 19,0 17,7 14 8 34 19 WSW 1017,2 20 0,0
29.06.2020 17:00:00 20,3 10,1 27,3 18,9 17,8 15 8 35 19 W 1017,6 20 0,0
29.06.2020 16:00:00 19,9 9,5 28,7 18,9 17,7 17 9 34 18 WSW 1018,2 20 0,0
29.06.2020 15:00:00 20,6 9,5 29,0 18,8 17,7 16 9 34 18 WSW 1018,4 20 0,0
29.06.2020 14:00:00 20,0 10,1 25,0 18,8 17,8 19 10 35 19 WSW 1018,6 20 0,0
29.06.2020 13:00:00 18,5 10,1 24,3 18,8 17,8 13 7 32 17 W 1018,7 20 0,0
29.06.2020 12:00:00 19,0 11,1 21,3 18,8 17,7 14 7 29 16 WSW 1018,6 20 0,0
29.06.2020 11:00:00 18,1 11,9 21,0 18,8 17,7 8 4 23 13 W 1018,4 20 0,0
29.06.2020 10:00:00 17,1 11,8 19,0 18,8 17,7 11 6 20 11 WNW 1018,4 20 0,0
29.06.2020 09:00:00 16,6 12,5 16,3 18,9 17,8 9 5 22 12 NW 1018,0 20 0,0
29.06.2020 08:00:00 16,1 15,1 16,7 18,9 17,7 10 6 21 11 W 1017,3 20 0,0
29.06.2020 07:00:00 16,2 15,6 16,6 18,9 17,7 9 5 23 12 W 1016,3 20 0,2
29.06.2020 06:00:00 16,3 16,0 16,5 19,0 17,7 9 5 21 12 W 1015,7 4,8 1,2
29.06.2020 05:00:00 16,6 16,1 16,4 19,0 17,7 9 5 17 9 WSW 1015,3 20 0,0
29.06.2020 04:00:00 16,6 16,4 16,4 19,1 17,7 10 6 16 9 WSW 1015,3 16 0,8
29.06.2020 03:00:00 16,2 16,2 16,1 19,1 17,7 2 1 6 3 NNE 1015,4 3,1 5,7
29.06.2020 02:00:00 16,2 16,0 15,8 19,2 17,7 3 1 10 5 SSE 1016,0 3,2 2,8
29.06.2020 01:00:00 16,0 15,5 15,6 19,2 17,7 5 3 10 6 S 1016,7 20 0,0
29.06.2020 00:00:00 16,1 15,5 15,8 19,3 17,7 5 3 13 7 SSW 1017,1 20 0,0
28.06.2020 23:00:00 16,4 15,8 16,2 19,3 17,7 11 6 19 10 SSW 1017,4 4,3 0,4
28.06.2020 22:00:00 17,2 15,5 16,8 19,3 17,7 6 4 12 6 SSW 1017,2 20 0,0
28.06.2020 21:00:00 17,6 15,2 17,7 19,3 17,8 6 3 16 9 SW 1017,2 20 0,0
28.06.2020 20:00:00 18,1 16,1 18,5 19,3 17,7 7 4 23 12 SSW 1017,3 20 0,0
28.06.2020 19:00:00 18,3 15,9 18,8 19,3 17,7 13 7 20 11 SSW 1017,6 20 0,0
28.06.2020 18:00:00 17,3 15,6 18,6 19,3 17,7 6 3 20 11 W 1018,0 13 0,0
28.06.2020 17:00:00 16,7 15,4 17,8 19,4 17,7 12 6 19 11 SW 1018,7 20 0,0
28.06.2020 16:00:00 16,0 15,5 16,4 19,4 17,7 9 5 22 12 SSW 1018,8 20 1,4
28.06.2020 15:00:00 15,7 14,7 16,6 19,5 17,7 11 6 23 12 SW 1019,0 11 1,4
28.06.2020 14:00:00 17,9 14,0 19,2 19,5 17,7 10 6 23 12 WSW 1018,5 15 0,4
28.06.2020 13:00:00 18,9 12,4 23,4 19,5 17,7 13 7 25 13 WSW 1018,4 20 0,0

tt = Température de l'air
td = dewpoint
tt 5cm = Température de l'air 5cm
tt -20cm = Température de l'air -20cm
tt -100cm = Température de l'air -100cm
ff = Vitesse du vent
fx = gusts
dd = Direction du vent
ppp = reduced air pressure
vv = visibility
rr = Quantités de précipitations

stations d'obs. à proximité